TimeMDT,TemperatureF,Dew PointF,Humidity,Sea Level PressureIn,VisibilityMPH,Wind Direction,Wind SpeedMPH,Gust SpeedMPH,PrecipitationIn,Events,Conditions,WindDirDegrees,DateUTC
12:53 AM,64.0,46.9,54,29.70,10.0,NE,20.7,31.1,N/A,,Clear,40,2013-06-22 06:53:00
1:53 AM,62.1,52.0,70,29.68,10.0,ENE,21.9,29.9,N/A,,Clear,60,2013-06-22 07:53:00
2:53 AM,62.1,53.1,72,29.67,10.0,East,19.6,28.8,N/A,,Clear,80,2013-06-22 08:53:00
3:53 AM,60.1,53.1,78,29.71,10.0,ENE,16.1,-,N/A,,Clear,70,2013-06-22 09:53:00
4:53 AM,57.0,53.1,87,29.79,10.0,NW,6.9,-,N/A,,Clear,320,2013-06-22 10:53:00
5:38 AM,57.2,53.6,88,29.95,10.0,NW,6.9,-,N/A,,Mostly Cloudy,310,2013-06-22 11:38:00
5:53 AM,57.9,53.1,84,29.80,10.0,WNW,6.9,-,N/A,,Overcast,300,2013-06-22 11:53:00
6:53 AM,60.1,54.0,80,29.82,10.0,NW,9.2,-,N/A,,Overcast,320,2013-06-22 12:53:00
7:53 AM,63.0,54.0,72,29.83,10.0,NNW,8.1,-,N/A,,Overcast,330,2013-06-22 13:53:00
8:53 AM,66.0,55.0,68,29.81,10.0,North,4.6,-,N/A,,Overcast,350,2013-06-22 14:53:00
9:53 AM,69.1,55.0,61,29.80,10.0,NNE,9.2,-,N/A,,Overcast,20,2013-06-22 15:53:00
10:38 AM,71.6,57.2,60,29.95,10.0,NE,6.9,-,N/A,,Scattered Clouds,40,2013-06-22 16:38:00
10:53 AM,73.0,57.0,57,29.78,10.0,NNE,6.9,-,N/A,,Clear,20,2013-06-22 16:53:00
11:53 AM,75.9,57.9,54,29.77,10.0,North,6.9,17.3,N/A,,Clear,360,2013-06-22 17:53:00
12:53 PM,78.1,57.9,50,29.76,10.0,ENE,4.6,-,N/A,,Clear,70,2013-06-22 18:53:00
1:53 PM,84.0,57.0,40,29.72,10.0,East,12.7,21.9,N/A,,Clear,90,2013-06-22 19:53:00
2:53 PM,84.0,57.0,40,29.69,10.0,East,15.0,20.7,N/A,,Clear,80,2013-06-22 20:53:00
3:53 PM,84.9,57.9,40,29.64,10.0,ESE,16.1,23.0,N/A,,Clear,120,2013-06-22 21:53:00
4:53 PM,82.0,55.9,41,29.62,10.0,ESE,17.3,-,N/A,,Clear,110,2013-06-22 22:53:00
5:53 PM,79.0,57.0,47,29.65,10.0,East,9.2,-,N/A,Thunderstorm,Clear,90,2013-06-22 23:53:00
6:26 PM,66.2,48.2,52,29.84,9.0,WNW,43.7,57.5,0.00,Rain-Thunderstorm,Light Thunderstorms and Rain,300,2013-06-23 00:26:00
6:37 PM,60.8,53.6,77,29.91,4.0,WNW,35.7,52.9,0.03,Rain-Thunderstorm,Thunderstorms and Rain,300,2013-06-23 00:37:00
6:43 PM,59.0,51.8,77,29.89,1.8,NNW,43.7,59.8,0.17,Rain-Thunderstorm,Heavy Thunderstorms and Rain,340,2013-06-23 00:43:00
6:49 PM,60.8,51.8,72,29.88,2.0,North,29.9,59.8,0.21,Rain-Thunderstorm,Thunderstorms and Rain,360,2013-06-23 00:49:00
6:53 PM,62.1,50.0,65,29.73,4.0,North,26.5,42.6,0.21,Rain-Thunderstorm,Light Thunderstorms and Rain,360,2013-06-23 00:53:00
7:00 PM,64.4,48.2,56,29.85,10.0,North,23.0,40.3,0.01,Rain-Thunderstorm,Light Thunderstorms and Rain,10,2013-06-23 01:00:00
7:19 PM,64.4,50.0,59,29.81,10.0,NNE,13.8,31.1,0.01,,Scattered Clouds,20,2013-06-23 01:19:00
7:53 PM,64.9,51.1,61,29.68,10.0,NE,12.7,-,0.01,,Clear,40,2013-06-23 01:53:00
8:53 PM,64.9,50.0,58,29.67,10.0,Variable,5.8,-,N/A,,Clear,0,2013-06-23 02:53:00
9:13 PM,66.2,48.2,52,29.83,10.0,NE,6.9,-,N/A,Thunderstorm,Scattered Clouds,50,2013-06-23 03:13:00
9:53 PM,70.0,51.1,51,29.66,10.0,SSE,10.4,-,0.01,Thunderstorm,Thunderstorm,160,2013-06-23 03:53:00
10:12 PM,66.2,51.8,60,29.89,10.0,NNW,18.4,26.5,0.00,Rain,Light Rain,330,2013-06-23 04:12:00
10:33 PM,64.4,51.8,64,29.88,10.0,North,17.3,27.6,0.02,Thunderstorm,Thunderstorm,10,2013-06-23 04:33:00
10:53 PM,63.0,52.0,67,29.74,10.0,NE,11.5,20.7,0.02,Rain-Thunderstorm,Light Thunderstorms and Rain,40,2013-06-23 04:53:00
11:53 PM,57.9,53.1,84,29.72,10.0,NNE,5.8,-,0.06,,Partly Cloudy,20,2013-06-23 05:53:00